Regional Weather Roundup
Issued by NWS

Home | Current Version | Previous Version | Graphics & Text | Print | Product List | Glossary On
Versions: 1 2 3 4 5 6 7 8 9 10 11 12 13 14 15 16 17 18 19 20 21 22 23 24 25 26 27 28 29 30 31 32 33 34 35 36 37 38 39 40 41 42 43 44 45 46 47 48 49 50
000
ASUS43 KMPX 171001
RWRMN
WEATHER ROUNDUP FOR MINNESOTA
NATIONAL WEATHER SERVICE TWIN CITIES/CHANHASSEN MN
400 AM CST TUE JAN 17 2017


NOTE: "FAIR" INDICATES FEW OR NO CLOUDS BELOW 12,000 FEET WITH NO
SIGNIFICANT WEATHER AND/OR OBSTRUCTIONS TO VISIBILITY. N/A MEANS
CURRENT SKY AND/OR WEATHER CONDITIONS ARE NOT AVAILABLE.

MNZ060>063-068>070-171100-
   Twin Cities Metro

CITY           SKY/WX    TMP DP  RH WIND       PRES   REMARKS
TWIN CITIES    LGT SNOW  30  27  88 N8        29.94S FOG     WCI  22
ST PAUL        LGT SNOW  31  31 100 NW6       29.95S FOG     WCI  25
CRYSTAL        MIX PCPN  30  24  78 N6        29.94S WCI  24
BLAINE         LGT SNOW  32  30  93 N5        29.95S WCI  27
LAKEVILLE      LGT SNOW  28  28 100 NW6       29.93S WCI  22
EDEN PRAIRIE   CLOUDY    31  28  89 NW5       29.94R FOG     WCI  26
SOUTH ST PAUL  LGT SNOW  32  32  99 N6        29.94S WCI  26
LAKE ELMO      LGT SNOW  32  32 100 N6        29.94S WCI  26
$$
MNZ001>005-007-008-013>017-022>024-027-028-171100-
   Northwest Minnesota

CITY           SKY/WX    TMP DP  RH WIND       PRES   REMARKS
BEMIDJI        CLOUDY    -1  -4  85 NW3       29.96S
HALLOCK        CLOUDY     1   0  92 S9        29.95F WCI -14
ROSEAU         CLOUDY     1  -4  78 S5        29.96F WCI  -8
WARROAD        CLOUDY     1  -4  78 CALM      29.98R
THIEF RVR FALL CLOUDY     0  -4  83 CALM      29.98  FOG
CROOKSTON      CLOUDY     1  -2  85 S6        30.00F WCI -10
FOSSTON        CLOUDY     0  -2  92 S5        29.97F FOG     WCI -10
DETROIT LAKES  CLOUDY     3   0  85 CALM      29.99S
MOORHEAD       CLOUDY     0  -4  85 S3        30.01F
PARK RAPIDS    CLOUDY    -1  -8  72 CALM      29.96S HAZE
MAHNOMEN       FAIR       6   3  88 S5        29.97F WCI  -3
$$
MNZ006-009>011-018-025>026-171100-
   North Central Minnesota

CITY           SKY/WX    TMP DP  RH WIND       PRES   REMARKS
BAUDETTE       CLOUDY    -5  -9  83 CALM      29.95F
FLAG ISLAND    CLOUDY     0  -2  92 CALM      29.95F
INTL FALLS     HAZE      -4  -9  79 CALM      29.96F VSB 3/4
WASKISH        CLOUDY    -2  -6  84 CALM      29.97F
BIG FORK       CLOUDY     0  -4  85 CALM      29.95F
LONGVILLE      CLOUDY     0  -4  85 CALM      29.96F
GRAND RAPIDS   CLOUDY     4   1  88 CALM      29.97F
CRANE LAKE     CLOUDY    -4  -8  84 CALM      29.99F
ORR            CLOUDY     0  -4  85 CALM      29.93F
COOK           CLOUDY    -2  -6  84 CALM      29.96F
WALKER         FAIR       6   4  89 CALM      29.96S
$$
MNZ012-019>021-037-171100-
   Northeast Minnesota

CITY           SKY/WX    TMP DP  RH WIND       PRES   REMARKS
DULUTH         CLOUDY    18  14  84 CALM      29.95F
ELY            CLOUDY     0  -2  92 CALM      29.96F
HIBBING        CLOUDY    -4  -7  87 CALM      29.95F
EVELETH        CLOUDY     0  -5  80 CALM      29.97F
DULUTH HARBOR  CLOUDY    21  19  93 CALM      30.00F
TWO HARBORS    CLOUDY    27  21  80 CALM      29.95F
SILVER BAY     CLOUDY    18  18 100 CALM      29.96F FOG
GRAND MARAIS     N/A     28  25  88 NE5       30.01F WCI  23
G MARAIS ARPRT CLOUDY    12   9  85 N5        29.96F HAZE    WCI   4
$$
MNZ029>031-032-039>041-046>048-054>057-064-171100-
   West Central Minnesota

CITY           SKY/WX    TMP DP  RH WIND       PRES   REMARKS
FERGUS FALLS   FOG        3   0  85 CALM      30.06S VSB 1/4
WHEATON        CLOUDY    10   9  92 CALM      30.04F
MORRIS         CLEAR      7   3  85 NW3       30.00S
ALEXANDRIA     CLOUDY     7   5  91 CALM      29.97F FOG
ELBOW LAKE     FAIR       2   0  88 CALM      30.01S FOG
WADENA         CLOUDY    -2  -6  84 CALM      29.97S
GLENWOOD       CLOUDY    21  19  93 N7        29.98S WCI  13
APPLETON       CLOUDY    12   9  85 W6        30.02S WCI   3
ORTONVILLE     CLOUDY     9   5  85 CALM      30.02S
MADISON        CLOUDY    12   9  85 W9        30.03F WCI   0
WILLMAR        CLOUDY    28  28 100 CALM      29.98F FOG
$$
MNZ033>034-036-042>043-049>051-058-059-171100-
   Central Minnesota

CITY           SKY/WX    TMP DP  RH WIND       PRES   REMARKS
ST CLOUD       CLEAR     23  21  92 CALM      29.96F
SAUK CENTRE    CLOUDY    23  22  96 NW5       29.97F FOG     WCI  17
PAYNESVILLE    CLOUDY    29  29 100 NW6       29.96F FOG     WCI  23
AITKIN         CLOUDY     3  -4  72 CALM      29.95F
PINE RIVER     CLOUDY     0  -2  92 CALM      30.00F
BRAINERD       FOG       11   9  92 CALM      29.96F VSB<1/4
STAPLES        FOG        0  -4  85 CALM      29.97F VSB<1/4
LONG PRAIRIE   CLOUDY    23  21  93 NW5       29.97F FOG     WCI  17
LITTLE FALLS   CLOUDY    27  23  86 CALM      29.97F FOG
LITCHFIELD     CLOUDY    30  28  93 N3        29.96F
BUFFALO        CLOUDY    30  24  78 N6        29.96F WCI  24
MAPLE LAKE     CLOUDY    30  26  85 N6        29.97S WCI  24
HUTCHINSON     CLOUDY    31  27  86 NW6       29.96F WCI  25
$$
MNZ037-044-045-052-053-171100-
   East Central Minnesota

CITY           SKY/WX    TMP DP  RH WIND       PRES   REMARKS
PRINCETON      CLOUDY    27  21  80 N5        29.95F WCI  21
MORA           CLOUDY    21  18  86 CALM      29.98F
CAMBRIDGE      CLOUDY    30  21  69 NW6       29.95S WCI  24
RUSH CITY      FLURRIES  28  23  80 NE5       29.96F WCI  23
MOOSE LAKE     CLOUDY    18  12  79 CALM      29.96S
HINCKLEY       FAIR      28  21  74 N7        29.96F WCI  21
CLOQUET        PTCLDY    18  12  79 N3        29.95F
MCGREGOR       PTCLDY     7   3  85 CALM      29.96F
$$
MNZ071>073-080-081-089-090-097-098-171100-
   Southwest Minnesota

CITY           SKY/WX    TMP DP  RH WIND       PRES   REMARKS
MONTEVIDEO     CLOUDY    19  16  86 N10       30.02S WCI   8
GRANITE FALLS  CLOUDY    23  21  93 W10       30.01S WCI  12
CANBY            N/A     17  13  84 CALM      30.03S
MARSHALL       CLOUDY    19  16  88 NW15      30.00S WCI   5
REDWOOD FALLS  CLOUDY    25  21  85 NW7       29.97F FOG     WCI  17
OLIVIA         CLOUDY    27  25  93 NW7       29.97F FOG     WCI  19
PIPESTONE      MIX PCPN  25  25 100 N8        29.96S VSB 1/2 WCI  16
WINDOM         FOG       25  25 100 NW10      29.95S VSB 1   WCI  15
WORTHINGTON    CLOUDY    25  24  96 NW14      29.95S FOG     WCI  13
JACKSON        FOG       28  28 100 NW8       29.94S VSB 1   WCI  20
TRACY          FOG       22  22  96 NW9       29.98S VSB 3/4 WCI  12
SLAYTON        CLOUDY    23  22  98 NW7       29.96S FOG     WCI  14
$$
MNZ065>067-074>077-082>085-091>093-171100-
   South Central Minnesota

CITY           SKY/WX    TMP DP  RH WIND       PRES   REMARKS
MANKATO        LGT SNOW  29  27  92 NW9       29.94F FOG     WCI  20
NEW ULM        CLOUDY    28  27  93 NW7       29.95F FOG     WCI  21
ST JAMES       CLOUDY    30  30 100 NW8       29.96S FOG     WCI  23
FAIRMONT       FOG       30  29  96 N16       29.93F VSB 3/4 WCI  19
GLENCOE        CLOUDY    31  30  94 N6        29.95S WCI  25
FARIBAULT      MIX PCPN  30  28  93 NW6       29.92F WCI  24
OWATONNA       MIX PCPN  30  28  93 N6        29.91S WCI  24
WASECA         MIX PCPN  30  28  93 N7        29.93F WCI  23
ALBERT LEA     CLOUDY    32  30  93 NW5       29.89S FOG     WCI  27
$$
MNZ078>079-086>088-094>096-171100-
   Southeast Minnesota

CITY           SKY/WX    TMP DP  RH WIND       PRES   REMARKS
ROCHESTER      FRZ RAIN  31  31 100 N10       29.87S FOG     WCI  22
RED WING       MIX PCPN  34  30  86 CALM      29.91S
STANTON        LGT SNOW  32  31  94 NW8       29.91F WCI  25
DODGE CENTER   LGT SNOW  30  30 100 CALM      29.88S
WINONA         CLOUDY    34  34 100 NW5       29.89F FOG     WCI  30
AUSTIN         CLOUDY    32  30  93 CALM      29.87F FOG
PRESTON        CLOUDY    31  31  97 N5        29.86S FOG     WCI  27
$$
ABBREVIATIONS USED IN REMARKS
   TC - TEMPERATURES IN CELSIUS
  WCI - WIND CHILL INDEX
   HX - HEAT INDEX
  VSB - VISIBILITY
$$




USA.gov is the U.S. government's official web portal to all federal, state and local government web resources and services.